www.pogodaiklimat.ru

Погода и климат >> Архив погоды >> Бенин >> Kandi


ПОГОДА в Kandi

  • Прогноз погоды в Kandi
  • Монитор погоды в Kandi
  • Климат города

АРХИВ ПОГОДЫ в Kandi

Время (UTC), дата Ветер
(напр.,м/с)
 
Видим.   Явления Облачность Т
(С)
Тd
(С)
f
(%)
Тe
(С)
Тes
(С)
Комфортность P
(гПа)
Po
(гПа)
Тmin
(С)
Tmax
(С)
R
(мм)
R24
(мм)
S
(см)
21 8.12 СВ 1 600 м мгла {туман} 6/0
[Ci sp]
+25.8 +9.6 36 +26 +26 жарко 1012.0 979.0
00 9.12 СВ 2 600 м мгла {туман} 6/0
[Ci sp]
+23.2 +9.9 43 +25 +25 комфорт 1011.4 978.6
03 9.12 СВ 1 400 м мгла {туман} 6/0
[Ci sp]
+22.5 +7.2 37 +23 +23 комфорт 1010.4 977.6
06 9.12 СВ 1 400 м мгла {туман} 6/0
[Ci sp]
+20.7 +8.3 45 +23 +23 комфорт 1011.5 978.4 +20.2
09 9.12 СВ 3 500 м мгла {туман} 6/0
[Ci sp]
+24.3 +6.7 32 +24 +30 комфорт 1013.2 980.1
12 9.12 В 1 500 м мгла {туман} 6/0
[Ci sp]
+28.5 +9.0 29 +28 +44 жарко 1011.4 978.5
15 9.12 СВ 2 500 м мгла 6/0
[Ci sp]
+29.3 +7.4 25 +28 +34 жарко 1009.9 977.0
18 9.12 СВ 1 400 м мгла {туман} 6/0
[Ci sp]
+26.8 +8.4 31 +27 +27 жарко 1011.3 978.2 +30.2
21 9.12 штиль 0 400 м мгла {туман} 6/0
[Ci sp]
+23.7 +11.7 47 +25 +25 комфорт 1013.5 980.3
00 10.12 штиль 0 400 м мгла {туман} 6/0
[Ci sp]
+20.3 +10.8 54 +22 +22 комфорт 1013.9 980.7
03 10.12 штиль 0 400 м мгла {туман} 6/0
[Ci sp]
+17.8 +9.2 57 +18 +18 1012.5 979.3
06 10.12 штиль 0 500 м мгла {туман} 6/0
[Ci sp]
+15.9 +9.5 66 +16 +16 1013.3 979.8 +15.7
09 10.12 СВ 4 700 м мгла {туман} 6/0
[Ci sp]
+25.2 +9.7 38 +24 +28 комфорт 1013.6 980.4
12 10.12 СВ 4 1000 м мгла {туман} 6/0
[Ci sp]
+29.7 +9.9 29 +30 +38 жарко 1011.8 978.8
15 10.12 СВ 4 1400 м мгла {туман} 6/0
[Ci sp]
+30.7 +10.0 28 +30 +34 жарко 1009.6 976.6
18 10.12 СВ 1 2500 м мгла {туман} 6/0
[Ci sp]
+26.0 +2.0 21 +25 +25 комфорт 1010.9 977.5 +31.1
21 10.12 СВ 1 2500 м мгла 6/0
[Ci sp]
+22.0 +4.4 32 +22 +22 комфорт 1012.9 979.7
00 11.12 штиль 0 2500 м мгла 6/0
[Ci sp]
+17.5 +5.3 45 +18 +18 1012.3 979.1
03 11.12 штиль 0 2500 м мгла 6/0
[Ci sp]
+16.0 +5.3 49 +16 +16 1011.7 978.5
06 11.12 штиль 0 3000 м мгла 6/0
[Ac trans Ci sp]
+14.9 +4.6 50 +15 +15 1012.9 979.3 +14.2
09 11.12 В 3 3000 м мгла 6/0
[Ci sp]
+25.1 +0.4 20 +24 +29 комфорт 1013.8 980.5
12 11.12 В 2 3000 м мгла 8/0
[Ac trans Ci sp]
+30.3 +2.9 17 +28 +39 жарко 1011.8 978.7
15 11.12 штиль 0 3500 м мгла 9/0
[Ac trans Ci sp]
+31.8 +5.4 19 +30 +35 жарко 1009.6 976.5
18 11.12 штиль 0 3200 м мгла 9/0
[Ac As Ci sp]
+28.2 +9.3 31 +28 +28 жарко 1011.1 977.7 +32.3
21 11.12 В 1 3200 м мгла 9/0
[Ac As Ci sp]
+25.9 +8.2 33 +26 +26 жарко 1012.8 979.8
00 12.12 В 1 3500 м мгла {дождь} 8/0
[Ac As Ci sp]
+23.8 +7.1 34 +24 +24 комфорт 1011.4 978.6 0.0
03 12.12 В 1 3500 м мгла 8/0
[Ac As Ci sp]
+22.5 +5.0 32 +23 +23 комфорт 1009.9 977.1
06 12.12 СВ 1 4000 м мгла {дождь} 9/0
[Ac As Ci sp]
+22.8 +3.9 29 +23 +23 комфорт 1011.0 978.0 +21.1 0.0
09 12.12 В 1 3600 м мгла {дождь} 9/0
[Ac As Ci sp]
+25.5 +5.3 27 +25 +28 комфорт 1013.7 980.7
12 12.12 В 1 3600 м мгла {дождь} 9/0
[Ac As Ci sp]
+28.5 +7.6 27 +28 +34 жарко 1013.0 980.0 0.0
15 12.12 ЮВ 1 3600 м мгла 9/0
[Ac As]
+29.2 +11.1 33 +30 +32 жарко 1009.9 977.0
18 12.12 ЮВ 1 3000 м мгла 9/0
[Ac As Ci sp]
+27.2 +12.8 41 +29 +29 жарко 1011.7 978.7 +29.9 0.0
21 12.12 В 1 3000 м мгла {дождь} 9/0
[Ac As Ci sp]
+24.0 +13.0 50 +26 +26 жарко 1013.8 980.7
00 13.12 ЮВ 1 3000 м мгла {дождь} 9/0
[Ac As Ci sp]
+23.2 +12.6 51 +26 +26 жарко 1013.2 980.2 0.0
03 13.12 штиль 0 3000 м мгла 9/0
[Ac As Ci sp]
+20.9 +13.6 63 +23 +23 комфорт 1011.6 978.6
06 13.12 штиль 0 3500 м дымка 9/0
[Ac trans Ci sp]
+19.0 +13.5 70 +20 +20 1012.8 979.5 +19.0 0.0
09 13.12 В 1 3500 м мгла 9/0
[Ac As Ci sp]
+24.9 +11.1 42 +26 +30 жарко 1014.5 981.3
12 13.12 В 1 3500 м мгла 9/0
[Ac As Ci sp]
+31.6 +8.0 23 +30 +37 жарко 1012.2 979.4
15 13.12 В 3 3500 м мгла 8/0
[Ci sp]
+33.0 +10.5 25 +32 +37 жарко 1010.0 977.2
18 13.12 СВ 1 3500 м мгла 6/0
[Ac As Ci sp]
+28.4 +12.7 38 +30 +30 жарко 1011.1 977.9 +33.5
21 13.12 В 1 3500 м мгла 9/0
[Ac As Ci sp]
+26.5 +11.1 38 +27 +27 жарко 1012.4 979.4
00 14.12 СВ 1 3500 м мгла 9/0
[Ac As Ci sp]
+22.8 +12.9 54 +26 +26 жарко 1011.6 978.8
03 14.12 штиль 0 3500 м дымка 6/0
[Ci sp]
+19.6 +11.8 61 +21 +21 комфорт 1010.5 977.7
06 14.12 штиль 0 3000 м дымка 6/0
[Ac trans Ci sp]
+17.8 +11.9 68 +18 +18 1011.7 978.4 +17.6
09 14.12 СВ 2 3000 м мгла 6/0
[Ci sp]
+27.2 +7.7 29 +27 +34 жарко 1013.0 980.1
12 14.12 В 4 3000 м мгла 6/0
[Ci sp]
+33.7 +9.0 22 +32 +41 жарко 1010.7 978.0
15 14.12 СВ 1 3500 м мгла 6/0
[Ci sp]
+35.0 +8.8 20 +33 +40 жарко 1008.6 976.3
18 14.12 штиль 0 3500 м мгла 6/0
[Ci sp]
+29.5 +13.2 37 +31 +31 жарко 1010.4 977.2 +35.7
21 14.12 штиль 0 3500 м мгла 6/0
[Ci sp]
+24.6 +12.9 48 +27 +27 жарко 1012.1 979.1
00 15.12 СВ 1 3500 м мгла 6/0
[Ci sp]
+24.5 +9.2 38 +25 +25 комфорт 1011.0 978.4
03 15.12 В 2 3500 м мгла 6/0
[Ci sp]
+26.0 +4.7 25 +25 +25 комфорт 1009.8 977.4
06 15.12 В 2 3000 м мгла 6/0
[Ci sp]
+24.8 +5.3 28 +24 +24 комфорт 1011.1 978.3 +17.3
09 15.12 В 3 3000 м мгла 6/0
[Ci sp]
+28.8 +6.7 25 +28 +33 жарко 1013.3 980.4
12 15.12 В 3 3000 м мгла 6/0
[Ci sp]
+33.8 +9.2 22 +33 +43 жарко 1010.7 978.1
15 15.12 В 2 3000 м мгла 6/0
[Ci sp]
+34.9 +11.1 24 +34 +40 очень
жарко
1007.9 975.6

 

Местоположение метеостанции Kandi (Бенин): широта 11.13 долгота 2.93 высота над уровнем моря 292 м.

В архиве по умолчанию представлена погода в Kandi за последнюю неделю. Архивные данные за месяц целиком и за предыдущие месяцы, начиная с января 2011 года, Вы можете получить, выбрав интересующий диапазон дат из раскрывающегося списка и нажав кнопку "Ввод!".

Внимание! Время в таблицах - всемирное. Для получения местного времени необходимо прибавить поправку, которая в Kandi равна 1 ч.

Смотрите также архив погоды в соседних городах и на ближайших метеорологических станциях:

Погода в Gaya (Нигер) (101 км)
Погода в Natitingou (Бенин) (192 км)
Погода в Yelwa (Нигерия) (201 км)
Погода в Parakou (Бенин) (201 км)
Погода в Dosso (Нигер) (211 км)
Погода в Niamtougou (Того) (251 км)
Погода в Kara (Того) (261 км)
Погода в Niamey (Нигер) (274 км)
Погода в Mango (Того) (282 км)
Погода в Dapaon (Того) (283 км)

Пояснения к столбцам:

Ветер - указаны скорость ветра в м/с - средняя за 10 мин, порывы в срок и между сроками (в фигурных скобках) и направление, откуда дует ветер: С - северный, СВ - северо-восточный, В - восточный, ЮВ - юго-восточный, Ю - южный, ЮЗ - юго-западный, З - западный, СЗ - северо-западный.
Видимость - горизонтальная дальность видимости в метрах или километрах. При видимости от 1 до 10 км при отсутствии осадков обычно наблюдается дымка, при ухудшении видимости до 1 км и менее - туман. В сухую погоду видимость может ухудшаться дымом, пылью или мглою.
Явления - указаны атмосферные явления, наблюдавшиеся в срок или в последний час перед сроком; фигурными скобками обозначены явления, наблюдавшиеся между сроками (за 1-3 часа до срока); квадратными скобками обозначены град или гололедные отложения с указанием их диаметра в мм.
Облачность - указаны через наклонную черту общая и нижняя облачность в баллах и высота нижней границы облаков в метрах; квадратными скобками обозначены формы облаков: Ci - перистые, Cs - перисто-слоистые, Cc - перисто-кучевые, Ac - высококучевые, As - высокослоистые, Sc - слоисто-кучевые, Ns - слоисто-дождевые, Cu - кучевые, Cb - кучево-дождевые. Подробнее классификацию облаков см. в Атласе облаков (PDF).
T - Температура воздуха - температура, измеренная на высоте 2 м над землей.
Td - Температура точки росы - температура, при понижении до которой содержащийся в воздухе водяной пар достигнет насыщения.
f - Относительная влажность воздуха - влажноcть воздуха, измеренная на высоте 2 м над землей.
Te - Эффективная температура - температура, которую ощущает одетый по сезону человек в тени. Характеристика душности погоды. При расчете учитывается влияние влажности воздуха и скорости ветра на теплоощущения человека.
Tes - Эффективная температура на солнце - температура, которую ощущает человек, с поправкой на солнечный нагрев. Характеристика знойности погоды. Зависит от высоты солнца над горизонтом, облачности и скорости ветра. Ночью, в пасмурную погоду, а также при ветре 12 м/с и более поправка равна нулю.
P - Атмосферное давление - приведенное к уровню моря атмосферное давление.
Po - Атмосферное давление - измеренное на уровне метеостанции атмосферное давление.
Tmin - Минимальная температура - минимум температуры воздуха на высоте 2 м над землей.
Tmax - Максимальная температура - максимум температуры воздуха на высоте 2 м над землей.
R - Количество осадков - Количество выпавших осадков за период времени, мм. При наведении курсора мыши на число - период времени, за который выпало указанное количество осадков.
R24 - Количество осадков - Количество выпавших осадков за 24 часа, мм.
S - Снежный покров - Высота снежного покрова, см. При наведении курсора мыши на число - состояние снежного покрова и степень покрытия местности в баллах.